Time,TemperatureF,DewpointF,PressureIn,WindDirection,WindDirectionDegrees,WindSpeedMPH,WindSpeedGustMPH,Humidity,HourlyPrecipIn,Conditions,Clouds,dailyrainin,SoftwareType,DateUTC
2013-06-15 00:00:00,75.2,73.4,29.94,SSE,154,0.0,4.0,94,0.01,,SKC,0.09,VWS V14.01,2013-06-15 05:00:00,
2013-06-15 00:01:00,75.2,73.4,29.94,SSE,154,0.0,4.0,94,0.01,,SKC,0.09,VWS V14.01,2013-06-15 05:01:00,
2013-06-15 00:06:00,75.3,73.5,29.94,SSE,154,0.0,3.0,94,0.00,,SKC,0.00,VWS V14.01,2013-06-15 05:06:00,
2013-06-15 00:11:00,75.3,73.5,29.94,SSE,154,0.0,3.0,94,0.00,,SKC,0.00,VWS V14.01,2013-06-15 05:11:00,
2013-06-15 00:16:00,75.4,73.6,29.93,SSE,154,0.0,3.0,94,0.00,,SKC,0.00,VWS V14.01,2013-06-15 05:16:00,
2013-06-15 00:21:00,75.3,73.5,29.94,SSE,154,0.0,3.0,94,0.00,,SKC,0.00,VWS V14.01,2013-06-15 05:21:00,
2013-06-15 00:26:00,75.3,73.5,29.94,SSE,154,0.0,3.0,94,0.00,,SKC,0.00,VWS V14.01,2013-06-15 05:26:00,
2013-06-15 00:31:00,75.3,73.5,29.94,SSE,154,0.0,3.0,94,0.00,,SKC,0.00,VWS V14.01,2013-06-15 05:31:00,
2013-06-15 00:36:00,75.3,73.5,29.95,SSE,154,0.0,0.0,94,0.00,,SKC,0.00,VWS V14.01,2013-06-15 05:36:00,
2013-06-15 00:41:00,75.3,73.5,29.95,SSE,154,0.0,0.0,94,0.00,,SKC,0.00,VWS V14.01,2013-06-15 05:41:00,
2013-06-15 00:46:00,75.3,73.5,29.94,SSE,154,0.0,4.0,94,0.00,,SKC,0.00,VWS V14.01,2013-06-15 05:46:00,
2013-06-15 00:51:00,75.2,73.4,29.95,SSE,154,0.0,4.0,94,0.00,,SKC,0.00,VWS V14.01,2013-06-15 05:51:00,
2013-06-15 00:56:00,75.2,73.4,29.95,SSE,154,0.0,4.0,94,0.00,,SKC,0.00,VWS V14.01,2013-06-15 05:56:00,
2013-06-15 01:01:00,75.1,73.3,29.95,SSE,154,0.0,4.0,94,0.00,,SKC,0.00,VWS V14.01,2013-06-15 06:01:00,
2013-06-15 01:06:00,75.1,73.3,29.95,SSE,154,0.0,3.0,94,0.00,,SKC,0.00,VWS V14.01,2013-06-15 06:06:00,
2013-06-15 01:11:00,75.0,73.2,29.94,SSE,154,0.0,5.0,94,0.00,,SKC,0.00,VWS V14.01,2013-06-15 06:11:00,
2013-06-15 01:16:00,75.0,73.2,29.94,SSE,154,0.0,5.0,94,0.00,,SKC,0.00,VWS V14.01,2013-06-15 06:16:00,
2013-06-15 01:21:00,74.9,73.1,29.94,SSE,154,0.0,5.0,94,0.00,,SKC,0.00,VWS V14.01,2013-06-15 06:21:00,
2013-06-15 01:26:00,74.9,73.1,29.94,SSE,154,0.0,5.0,94,0.00,,SKC,0.00,VWS V14.01,2013-06-15 06:26:00,
2013-06-15 01:31:00,74.9,73.1,29.94,SSE,154,3.0,5.0,94,0.00,,SKC,0.00,VWS V14.01,2013-06-15 06:31:00,
2013-06-15 01:36:00,74.8,73.0,29.94,SSE,154,0.0,0.0,94,0.00,,SKC,0.00,VWS V14.01,2013-06-15 06:36:00,
2013-06-15 01:41:00,74.8,73.0,29.94,SSE,154,0.0,0.0,94,0.00,,SKC,0.00,VWS V14.01,2013-06-15 06:41:00,
2013-06-15 01:46:00,74.8,73.0,29.94,SSE,154,0.0,0.0,94,0.00,,SKC,0.00,VWS V14.01,2013-06-15 06:46:00,
2013-06-15 01:51:00,74.8,73.0,29.94,SSE,154,0.0,2.0,94,0.00,,SKC,0.00,VWS V14.01,2013-06-15 06:51:00,
2013-06-15 01:56:00,74.9,73.1,29.94,SSE,154,0.0,2.0,94,0.00,,SKC,0.00,VWS V14.01,2013-06-15 06:56:00,
2013-06-15 02:01:00,74.9,73.1,29.94,SSE,154,0.0,4.0,94,0.00,,SKC,0.00,VWS V14.01,2013-06-15 07:01:00,
2013-06-15 02:06:00,75.0,73.2,29.94,SSE,154,0.0,1.0,94,0.00,,SKC,0.00,VWS V14.01,2013-06-15 07:06:00,
2013-06-15 02:11:00,75.0,73.2,29.93,SSE,154,0.0,1.0,94,0.00,,SKC,0.00,VWS V14.01,2013-06-15 07:11:00,
2013-06-15 02:16:00,75.1,73.3,29.94,SSE,154,0.0,1.0,94,0.00,,SKC,0.00,VWS V14.01,2013-06-15 07:16:00,
2013-06-15 02:21:00,75.1,73.3,29.93,SSE,154,0.0,1.0,94,0.00,,SKC,0.00,VWS V14.01,2013-06-15 07:21:00,
2013-06-15 02:26:00,75.2,73.7,29.93,SSE,154,0.0,1.0,95,0.00,,SKC,0.00,VWS V14.01,2013-06-15 07:26:00,
2013-06-15 02:31:00,75.2,73.7,29.93,SSE,154,0.0,1.0,95,0.00,,SKC,0.00,VWS V14.01,2013-06-15 07:31:00,
2013-06-15 02:36:00,75.3,73.5,29.93,SSE,154,0.0,0.0,94,0.00,,SKC,0.00,VWS V14.01,2013-06-15 07:36:00,
2013-06-15 02:41:00,75.3,73.5,29.93,SSE,154,0.0,0.0,94,0.00,,SKC,0.00,VWS V14.01,2013-06-15 07:41:00,
2013-06-15 02:46:00,75.3,73.5,29.93,SSE,154,0.0,0.0,94,0.00,,SKC,0.00,VWS V14.01,2013-06-15 07:46:00,
2013-06-15 02:51:00,75.4,73.6,29.93,SSE,154,0.0,1.0,94,0.00,,SKC,0.00,VWS V14.01,2013-06-15 07:51:00,
2013-06-15 02:56:00,75.5,73.7,29.93,SSE,154,0.0,2.0,94,0.00,,SKC,0.00,VWS V14.01,2013-06-15 07:56:00,
2013-06-15 03:01:00,75.5,73.7,29.93,SSE,154,0.0,2.0,94,0.00,,SKC,0.00,VWS V14.01,2013-06-15 08:01:00,
2013-06-15 03:06:00,75.5,74.0,29.93,SSE,154,0.0,3.0,95,0.00,,SKC,0.00,VWS V14.01,2013-06-15 08:06:00,
2013-06-15 03:11:00,75.5,74.0,29.93,SSE,154,2.0,3.0,95,0.00,,SKC,0.00,VWS V14.01,2013-06-15 08:11:00,
2013-06-15 03:16:00,75.5,74.0,29.93,SSE,154,0.0,3.0,95,0.00,,SKC,0.00,VWS V14.01,2013-06-15 08:16:00,
2013-06-15 03:21:00,75.6,74.1,29.93,SSE,154,0.0,3.0,95,0.00,,SKC,0.00,VWS V14.01,2013-06-15 08:21:00,
2013-06-15 03:26:00,75.6,74.1,29.93,SSE,154,0.0,3.0,95,0.00,,SKC,0.00,VWS V14.01,2013-06-15 08:26:00,
2013-06-15 03:31:00,75.6,74.1,29.92,SSE,154,0.0,3.0,95,0.00,,SKC,0.00,VWS V14.01,2013-06-15 08:31:00,
2013-06-15 03:36:00,75.6,74.1,29.93,SSE,154,0.0,1.0,95,0.00,,SKC,0.00,VWS V14.01,2013-06-15 08:36:00,
2013-06-15 03:41:00,75.6,74.1,29.93,SSE,154,0.0,1.0,95,0.00,,SKC,0.00,VWS V14.01,2013-06-15 08:41:00,
2013-06-15 03:46:00,75.6,74.1,29.93,SSE,154,0.0,1.0,95,0.00,,SKC,0.00,VWS V14.01,2013-06-15 08:46:00,
2013-06-15 03:51:00,75.6,74.1,29.93,SSE,154,0.0,1.0,95,0.00,,SKC,0.00,VWS V14.01,2013-06-15 08:51:00,
2013-06-15 03:56:00,75.6,74.1,29.93,SSE,154,0.0,1.0,95,0.00,,SKC,0.00,VWS V14.01,2013-06-15 08:56:00,
2013-06-15 04:01:00,75.6,74.1,29.93,SSE,154,0.0,1.0,95,0.00,,SKC,0.00,VWS V14.01,2013-06-15 09:01:00,
2013-06-15 04:06:00,75.6,74.1,29.93,SSE,154,0.0,0.0,95,0.00,,SKC,0.00,VWS V14.01,2013-06-15 09:06:00,
2013-06-15 04:11:00,75.6,74.1,29.93,SSE,154,0.0,0.0,95,0.00,,SKC,0.00,VWS V14.01,2013-06-15 09:11:00,
2013-06-15 04:16:00,75.6,74.1,29.93,SSE,154,0.0,1.0,95,0.00,,SKC,0.00,VWS V14.01,2013-06-15 09:16:00,
2013-06-15 04:21:00,75.7,74.2,29.93,SSE,154,0.0,1.0,95,0.00,,SKC,0.00,VWS V14.01,2013-06-15 09:21:00,
2013-06-15 04:26:00,75.7,74.2,29.93,SSE,154,0.0,1.0,95,0.00,,SKC,0.00,VWS V14.01,2013-06-15 09:26:00,
2013-06-15 04:31:00,75.7,74.2,29.93,SSE,154,0.0,1.0,95,0.00,,SKC,0.00,VWS V14.01,2013-06-15 09:31:00,
2013-06-15 04:36:00,75.7,74.2,29.93,SSE,154,0.0,1.0,95,0.00,,SKC,0.00,VWS V14.01,2013-06-15 09:36:00,
2013-06-15 04:41:00,75.7,74.2,29.93,SSE,154,0.0,1.0,95,0.00,,SKC,0.00,VWS V14.01,2013-06-15 09:41:00,
2013-06-15 04:46:00,75.7,74.2,29.93,SSE,154,0.0,1.0,95,0.00,,SKC,0.00,VWS V14.01,2013-06-15 09:46:00,
2013-06-15 04:51:00,75.7,74.2,29.93,SSE,154,0.0,1.0,95,0.00,,SKC,0.00,VWS V14.01,2013-06-15 09:51:00,
2013-06-15 04:56:00,75.7,74.2,29.93,SSE,154,0.0,1.0,95,0.00,,SKC,0.00,VWS V14.01,2013-06-15 09:56:00,
2013-06-15 05:01:00,75.6,74.1,29.93,SSE,154,0.0,1.0,95,0.00,,SKC,0.00,VWS V14.01,2013-06-15 10:01:00,
2013-06-15 05:06:00,75.6,74.1,29.93,SSE,154,0.0,0.0,95,0.00,,SKC,0.00,VWS V14.01,2013-06-15 10:06:00,
2013-06-15 05:11:00,75.6,74.1,29.93,SSE,154,0.0,0.0,95,0.00,,SKC,0.00,VWS V14.01,2013-06-15 10:11:00,
2013-06-15 05:16:00,75.6,74.1,29.93,SSE,154,0.0,0.0,95,0.00,,SKC,0.00,VWS V14.01,2013-06-15 10:16:00,
2013-06-15 05:21:00,75.5,74.0,29.93,SSE,154,0.0,0.0,95,0.00,,SKC,0.00,VWS V14.01,2013-06-15 10:21:00,
2013-06-15 05:26:00,75.6,74.1,29.94,SSE,154,0.0,0.0,95,0.00,,SKC,0.00,VWS V14.01,2013-06-15 10:26:00,
2013-06-15 05:31:00,75.6,74.1,29.93,SSE,154,0.0,0.0,95,0.00,,SKC,0.00,VWS V14.01,2013-06-15 10:31:00,
2013-06-15 05:36:00,75.6,74.1,29.94,SSE,154,0.0,0.0,95,0.00,,SKC,0.00,VWS V14.01,2013-06-15 10:36:00,
2013-06-15 05:41:00,75.6,74.1,29.94,SSE,154,0.0,3.0,95,0.00,,SKC,0.00,VWS V14.01,2013-06-15 10:41:00,
2013-06-15 05:46:00,75.6,74.1,29.94,SSE,154,0.0,3.0,95,0.00,,SKC,0.00,VWS V14.01,2013-06-15 10:46:00,
2013-06-15 05:51:00,75.6,74.1,29.94,SSE,154,0.0,3.0,95,0.00,,SKC,0.00,VWS V14.01,2013-06-15 10:51:00,
2013-06-15 05:56:00,75.7,74.2,29.94,SSE,154,0.0,3.0,95,0.00,,SKC,0.00,VWS V14.01,2013-06-15 10:56:00,
2013-06-15 06:01:00,75.7,74.2,29.95,SSE,154,0.0,3.0,95,0.00,,SKC,0.00,VWS V14.01,2013-06-15 11:01:00,
2013-06-15 06:06:00,75.6,74.1,29.94,SSE,154,0.0,0.0,95,0.00,,SKC,0.00,VWS V14.01,2013-06-15 11:06:00,
2013-06-15 06:11:00,75.7,74.2,29.95,SSE,154,0.0,0.0,95,0.00,,SKC,0.00,VWS V14.01,2013-06-15 11:11:00,
2013-06-15 06:16:00,75.7,74.2,29.95,SSE,154,0.0,0.0,95,0.00,,SKC,0.00,VWS V14.01,2013-06-15 11:16:00,
2013-06-15 06:21:00,75.7,74.2,29.96,SSE,154,0.0,0.0,95,0.00,,SKC,0.00,VWS V14.01,2013-06-15 11:21:00,
2013-06-15 06:26:00,75.7,74.2,29.96,SSE,154,0.0,0.0,95,0.00,,SKC,0.00,VWS V14.01,2013-06-15 11:26:00,
2013-06-15 06:31:00,75.7,74.2,29.96,SSE,154,0.0,0.0,95,0.00,,SKC,0.00,VWS V14.01,2013-06-15 11:31:00,
2013-06-15 06:36:00,75.7,74.2,29.96,SSE,154,0.0,0.0,95,0.00,,SKC,0.00,VWS V14.01,2013-06-15 11:36:00,
2013-06-15 06:41:00,75.7,74.2,29.96,SSE,154,0.0,0.0,95,0.00,,SKC,0.00,VWS V14.01,2013-06-15 11:41:00,
2013-06-15 06:46:00,75.7,74.2,29.96,SSE,164,1.0,7.0,95,0.00,,SKC,0.00,VWS V14.01,2013-06-15 11:46:00,
2013-06-15 06:51:00,75.7,74.2,29.96,SSE,164,0.0,7.0,95,0.00,,SKC,0.00,VWS V14.01,2013-06-15 11:51:00,
2013-06-15 06:56:00,75.6,74.1,29.96,South,169,3.0,7.0,95,0.00,,SKC,0.00,VWS V14.01,2013-06-15 11:56:00,
2013-06-15 07:01:00,75.6,74.1,29.96,South,173,2.0,8.0,95,0.00,,SKC,0.00,VWS V14.01,2013-06-15 12:01:00,
2013-06-15 07:06:00,75.6,74.1,29.96,South,177,4.0,7.0,95,0.00,,SKC,0.00,VWS V14.01,2013-06-15 12:06:00,
2013-06-15 07:11:00,75.7,74.2,29.96,South,177,3.0,7.0,95,0.00,,SKC,0.00,VWS V14.01,2013-06-15 12:11:00,
2013-06-15 07:16:00,75.8,74.3,29.97,South,177,0.0,7.0,95,0.00,,SKC,0.00,VWS V14.01,2013-06-15 12:16:00,
2013-06-15 07:21:00,75.8,74.3,29.97,South,177,0.0,7.0,95,0.00,,SKC,0.00,VWS V14.01,2013-06-15 12:21:00,
2013-06-15 07:26:00,75.9,74.4,29.97,South,177,0.0,7.0,95,0.00,,SKC,0.00,VWS V14.01,2013-06-15 12:26:00,
2013-06-15 07:31:00,76.0,74.5,29.97,South,177,0.0,7.0,95,0.00,,SKC,0.00,VWS V14.01,2013-06-15 12:31:00,
2013-06-15 07:36:00,76.0,74.5,29.97,South,177,1.0,3.0,95,0.00,,SKC,0.00,VWS V14.01,2013-06-15 12:36:00,
2013-06-15 07:41:00,76.0,74.5,29.97,South,177,0.0,3.0,95,0.00,,SKC,0.00,VWS V14.01,2013-06-15 12:41:00,
2013-06-15 07:46:00,76.1,74.6,29.97,South,177,2.0,5.0,95,0.00,,SKC,0.00,VWS V14.01,2013-06-15 12:46:00,
2013-06-15 07:51:00,76.0,74.5,29.97,South,177,3.0,5.0,95,0.00,,SKC,0.00,VWS V14.01,2013-06-15 12:51:00,
2013-06-15 07:56:00,76.1,74.6,29.98,South,177,2.0,5.0,95,0.00,,SKC,0.00,VWS V14.01,2013-06-15 12:56:00,
2013-06-15 08:01:00,76.2,74.7,29.98,South,177,0.0,5.0,95,0.00,,SKC,0.00,VWS V14.01,2013-06-15 13:01:00,
2013-06-15 08:06:00,76.3,74.8,29.98,South,177,3.0,4.0,95,0.00,,SKC,0.00,VWS V14.01,2013-06-15 13:06:00,
2013-06-15 08:11:00,76.4,74.9,29.98,South,184,5.0,6.0,95,0.00,,SKC,0.00,VWS V14.01,2013-06-15 13:11:00,
2013-06-15 08:16:00,76.3,74.8,29.98,South,184,0.0,6.0,95,0.00,,SKC,0.00,VWS V14.01,2013-06-15 13:16:00,
2013-06-15 08:21:00,76.3,74.8,29.98,South,183,5.0,6.0,95,0.00,,SKC,0.00,VWS V14.01,2013-06-15 13:21:00,
2013-06-15 08:26:00,76.2,74.7,29.98,South,183,2.0,6.0,95,0.00,,SKC,0.00,VWS V14.01,2013-06-15 13:26:00,
2013-06-15 08:31:00,76.3,74.8,29.99,South,183,2.0,6.0,95,0.00,,SKC,0.00,VWS V14.01,2013-06-15 13:31:00,
2013-06-15 08:36:00,76.4,74.9,29.99,South,183,2.0,5.0,95,0.00,,SKC,0.00,VWS V14.01,2013-06-15 13:36:00,
2013-06-15 08:41:00,76.4,74.9,29.98,South,183,0.0,5.0,95,0.00,,SKC,0.00,VWS V14.01,2013-06-15 13:41:00,
2013-06-15 08:46:00,76.5,75.0,29.99,South,182,1.0,7.0,95,0.00,,SKC,0.00,VWS V14.01,2013-06-15 13:46:00,
2013-06-15 08:51:00,76.5,75.0,29.99,South,178,4.0,7.0,95,0.00,,SKC,0.00,VWS V14.01,2013-06-15 13:51:00,
2013-06-15 08:56:00,76.5,74.7,29.99,South,178,0.0,7.0,94,0.00,,SKC,0.00,VWS V14.01,2013-06-15 13:56:00,
2013-06-15 09:01:00,76.6,74.8,29.99,South,178,0.0,7.0,94,0.00,,SKC,0.00,VWS V14.01,2013-06-15 14:01:00,
2013-06-15 09:06:00,76.7,74.8,29.99,South,176,3.0,7.0,94,0.00,,SKC,0.00,VWS V14.01,2013-06-15 14:06:00,
2013-06-15 09:11:00,76.8,74.9,29.99,South,175,5.0,8.0,94,0.00,,SKC,0.00,VWS V14.01,2013-06-15 14:11:00,
2013-06-15 09:16:00,76.9,74.7,30.00,South,173,0.0,8.0,93,0.00,,SKC,0.00,VWS V14.01,2013-06-15 14:16:00,
2013-06-15 09:21:00,77.1,74.9,29.99,South,173,3.0,8.0,93,0.00,,SKC,0.00,VWS V14.01,2013-06-15 14:21:00,
2013-06-15 09:26:00,77.2,75.0,30.00,South,173,0.0,8.0,93,0.00,,SKC,0.00,VWS V14.01,2013-06-15 14:26:00,
2013-06-15 09:31:00,77.2,74.7,29.99,South,174,3.0,8.0,92,0.00,,SKC,0.00,VWS V14.01,2013-06-15 14:31:00,
2013-06-15 09:36:00,77.3,74.8,29.99,South,174,1.0,6.0,92,0.00,,SKC,0.00,VWS V14.01,2013-06-15 14:36:00,
2013-06-15 09:41:00,77.3,74.8,29.99,South,174,0.0,6.0,92,0.00,,SKC,0.00,VWS V14.01,2013-06-15 14:41:00,
2013-06-15 09:46:00,77.4,74.6,29.99,South,175,0.0,6.0,91,0.00,,SKC,0.00,VWS V14.01,2013-06-15 14:46:00,
2013-06-15 09:51:00,77.4,74.6,29.99,South,175,0.0,6.0,91,0.00,,SKC,0.00,VWS V14.01,2013-06-15 14:51:00,
2013-06-15 09:56:00,77.4,74.2,29.99,South,171,2.0,9.0,90,0.00,,SKC,0.00,VWS V14.01,2013-06-15 14:56:00,
2013-06-15 10:01:00,77.6,74.4,29.99,South,171,4.0,9.0,90,0.00,,SKC,0.00,VWS V14.01,2013-06-15 15:01:00,
2013-06-15 10:06:00,77.8,74.6,29.99,South,171,2.0,3.0,90,0.00,,SKC,0.00,VWS V14.01,2013-06-15 15:06:00,
2013-06-15 10:11:00,77.9,74.4,30.00,South,176,4.0,6.0,89,0.00,,SKC,0.00,VWS V14.01,2013-06-15 15:11:00,
2013-06-15 10:16:00,78.0,74.5,30.00,South,182,2.0,9.0,89,0.00,,SKC,0.00,VWS V14.01,2013-06-15 15:16:00,
2013-06-15 10:21:00,78.1,74.3,30.00,South,187,2.0,9.0,88,0.00,,SKC,0.00,VWS V14.01,2013-06-15 15:21:00,
2013-06-15 10:26:00,78.2,74.4,30.00,South,188,3.0,9.0,88,0.00,,SKC,0.00,VWS V14.01,2013-06-15 15:26:00,
2013-06-15 10:31:00,78.3,74.5,30.00,South,182,3.0,9.0,88,0.00,,SKC,0.00,VWS V14.01,2013-06-15 15:31:00,
2013-06-15 10:36:00,78.4,74.6,30.00,South,181,3.0,6.0,88,0.00,,SKC,0.00,VWS V14.01,2013-06-15 15:36:00,
2013-06-15 10:41:00,78.5,74.3,30.00,South,185,4.0,9.0,87,0.00,,SKC,0.00,VWS V14.01,2013-06-15 15:41:00,
2013-06-15 10:46:00,78.7,74.8,30.00,South,186,0.0,9.0,88,0.00,,SKC,0.00,VWS V14.01,2013-06-15 15:46:00,
2013-06-15 10:51:00,79.3,75.4,30.00,South,190,1.0,9.0,88,0.00,,SKC,0.00,VWS V14.01,2013-06-15 15:51:00,
2013-06-15 10:56:00,79.6,75.1,30.00,SSW,209,4.0,11.0,86,0.00,,SKC,0.00,VWS V14.01,2013-06-15 15:56:00,
2013-06-15 11:01:00,79.9,74.6,30.01,SW,219,4.0,14.0,84,0.00,,SKC,0.00,VWS V14.01,2013-06-15 16:01:00,
2013-06-15 11:06:00,80.1,74.8,30.00,South,188,6.0,11.0,84,0.00,,SKC,0.00,VWS V14.01,2013-06-15 16:06:00,
2013-06-15 11:11:00,80.3,74.3,30.01,SSW,207,6.0,11.0,82,0.00,,SKC,0.00,VWS V14.01,2013-06-15 16:11:00,
2013-06-15 11:16:00,80.4,74.4,30.00,SSW,196,3.0,11.0,82,0.00,,SKC,0.00,VWS V14.01,2013-06-15 16:16:00,
2013-06-15 11:21:00,80.4,74.0,30.00,SSW,205,7.0,12.0,81,0.00,,SKC,0.00,VWS V14.01,2013-06-15 16:21:00,
2013-06-15 11:26:00,80.4,74.0,30.00,SSW,199,4.0,12.0,81,0.00,,SKC,0.00,VWS V14.01,2013-06-15 16:26:00,
2013-06-15 11:31:00,80.4,74.0,30.00,SSW,201,1.0,12.0,81,0.00,,SKC,0.00,VWS V14.01,2013-06-15 16:31:00,
2013-06-15 11:36:00,80.6,74.2,30.01,SSW,200,3.0,5.0,81,0.00,,SKC,0.00,VWS V14.01,2013-06-15 16:36:00,
2013-06-15 11:41:00,80.5,74.1,30.01,SSW,201,3.0,8.0,81,0.00,,SKC,0.00,VWS V14.01,2013-06-15 16:41:00,
2013-06-15 11:46:00,80.5,74.1,30.00,SSW,201,2.0,8.0,81,0.00,,SKC,0.00,VWS V14.01,2013-06-15 16:46:00,
2013-06-15 11:51:00,80.6,74.2,30.00,SSW,196,3.0,8.0,81,0.00,,SKC,0.00,VWS V14.01,2013-06-15 16:51:00,
2013-06-15 11:56:00,80.6,74.2,30.00,SSW,194,4.0,8.0,81,0.00,,SKC,0.00,VWS V14.01,2013-06-15 16:56:00,
2013-06-15 12:00:00,80.6,73.9,30.00,SSW,194,1.0,8.0,80,0.00,,SKC,0.00,VWS V14.01,2013-06-15 17:00:00,
2013-06-15 12:01:00,80.6,73.9,30.00,SSW,194,3.0,8.0,80,0.00,,SKC,0.00,VWS V14.01,2013-06-15 17:01:00,
2013-06-15 12:06:00,80.5,73.8,30.00,SSW,194,4.0,6.0,80,0.00,,SKC,0.00,VWS V14.01,2013-06-15 17:06:00,
2013-06-15 12:11:00,80.6,73.9,30.00,SSW,194,2.0,6.0,80,0.00,,SKC,0.00,VWS V14.01,2013-06-15 17:11:00,
2013-06-15 12:16:00,80.6,73.9,30.00,SSW,194,5.0,9.0,80,0.00,,SKC,0.00,VWS V14.01,2013-06-15 17:16:00,
2013-06-15 12:21:00,80.6,73.9,29.99,SSW,194,3.0,9.0,80,0.00,,SKC,0.00,VWS V14.01,2013-06-15 17:21:00,
2013-06-15 12:26:00,80.7,74.0,29.99,SSW,194,2.0,9.0,80,0.00,,SKC,0.00,VWS V14.01,2013-06-15 17:26:00,
2013-06-15 12:31:00,80.9,74.2,29.99,SSW,194,2.0,9.0,80,0.00,,SKC,0.00,VWS V14.01,2013-06-15 17:31:00,
2013-06-15 12:36:00,81.0,74.6,29.99,SSW,195,1.0,6.0,81,0.00,,SKC,0.00,VWS V14.01,2013-06-15 17:36:00,
2013-06-15 12:41:00,81.2,74.4,29.98,SSW,195,1.0,6.0,80,0.00,,SKC,0.00,VWS V14.01,2013-06-15 17:41:00,
2013-06-15 12:46:00,81.4,74.6,29.98,SSW,195,3.0,6.0,80,0.00,,SKC,0.00,VWS V14.01,2013-06-15 17:46:00,
2013-06-15 12:51:00,81.6,74.8,29.98,SSW,194,4.0,6.0,80,0.00,,SKC,0.00,VWS V14.01,2013-06-15 17:51:00,
2013-06-15 12:56:00,81.8,75.0,29.98,SSW,194,0.0,6.0,80,0.00,,SKC,0.00,VWS V14.01,2013-06-15 17:56:00,
2013-06-15 13:01:00,82.0,74.8,29.98,SSW,194,0.0,6.0,79,0.00,,SKC,0.00,VWS V14.01,2013-06-15 18:01:00,
2013-06-15 13:06:00,82.1,74.6,29.98,SSW,194,4.0,4.0,78,0.00,,SKC,0.00,VWS V14.01,2013-06-15 18:06:00,
2013-06-15 13:11:00,82.3,74.4,29.98,SSW,194,0.0,6.0,77,0.00,,SKC,0.00,VWS V14.01,2013-06-15 18:11:00,
2013-06-15 13:16:00,82.4,74.5,29.98,SSW,194,2.0,6.0,77,0.00,,SKC,0.00,VWS V14.01,2013-06-15 18:16:00,
2013-06-15 13:21:00,82.6,74.7,29.98,SSW,194,3.0,6.0,77,0.00,,SKC,0.00,VWS V14.01,2013-06-15 18:21:00,
2013-06-15 13:26:00,82.6,74.3,29.98,SSW,193,0.0,6.0,76,0.00,,SKC,0.00,VWS V14.01,2013-06-15 18:26:00,
2013-06-15 13:31:00,82.8,74.5,29.97,SSW,193,0.0,6.0,76,0.00,,SKC,0.00,VWS V14.01,2013-06-15 18:31:00,
2013-06-15 13:36:00,83.1,75.2,29.97,SSW,192,3.0,3.0,77,0.00,,SKC,0.00,VWS V14.01,2013-06-15 18:36:00,
2013-06-15 13:41:00,83.5,75.1,29.97,SSW,193,0.0,3.0,76,0.00,,SKC,0.00,VWS V14.01,2013-06-15 18:41:00,
2013-06-15 13:46:00,83.8,74.6,29.97,SSW,201,0.0,6.0,74,0.00,,SKC,0.00,VWS V14.01,2013-06-15 18:46:00,
2013-06-15 13:51:00,84.0,74.8,29.97,SSW,201,0.0,6.0,74,0.00,,SKC,0.00,VWS V14.01,2013-06-15 18:51:00,
2013-06-15 13:56:00,84.1,74.9,29.97,SSW,200,6.0,6.0,74,0.00,,SKC,0.00,VWS V14.01,2013-06-15 18:56:00,
2013-06-15 14:01:00,84.2,75.0,29.97,SSW,199,1.0,7.0,74,0.00,,SKC,0.00,VWS V14.01,2013-06-15 19:01:00,
2013-06-15 14:06:00,84.2,75.0,29.97,SSW,199,0.0,5.0,74,0.00,,SKC,0.00,VWS V14.01,2013-06-15 19:06:00,
2013-06-15 14:11:00,84.3,74.7,29.96,SSW,199,0.0,5.0,73,0.00,,SKC,0.00,VWS V14.01,2013-06-15 19:11:00,
2013-06-15 14:16:00,84.3,74.7,29.97,SSW,198,4.0,6.0,73,0.00,,SKC,0.00,VWS V14.01,2013-06-15 19:16:00,
2013-06-15 14:21:00,84.3,74.7,29.97,SSW,198,0.0,6.0,73,0.00,,SKC,0.00,VWS V14.01,2013-06-15 19:21:00,
2013-06-15 14:26:00,84.2,74.6,29.97,SSW,198,0.0,6.0,73,0.00,,SKC,0.00,VWS V14.01,2013-06-15 19:26:00,
2013-06-15 14:31:00,84.3,75.1,29.96,SSW,198,0.0,6.0,74,0.00,,SKC,0.00,VWS V14.01,2013-06-15 19:31:00,
2013-06-15 14:36:00,84.3,74.7,29.96,SSW,196,4.0,7.0,73,0.00,,SKC,0.00,VWS V14.01,2013-06-15 19:36:00,
2013-06-15 14:41:00,84.2,74.2,29.96,SSW,196,3.0,7.0,72,0.00,,SKC,0.00,VWS V14.01,2013-06-15 19:41:00,
2013-06-15 14:46:00,84.1,74.5,29.96,SSW,196,0.0,7.0,73,0.00,,SKC,0.00,VWS V14.01,2013-06-15 19:46:00,
2013-06-15 14:51:00,84.1,74.5,29.96,SSW,196,0.0,7.0,73,0.00,,SKC,0.00,VWS V14.01,2013-06-15 19:51:00,
2013-06-15 14:56:00,84.1,74.9,29.96,SSW,196,0.0,7.0,74,0.00,,SKC,0.00,VWS V14.01,2013-06-15 19:56:00,
2013-06-15 15:01:00,84.1,74.9,29.96,SSW,196,0.0,7.0,74,0.00,,SKC,0.00,VWS V14.01,2013-06-15 20:01:00,
2013-06-15 15:06:00,84.2,75.0,29.95,SSW,196,0.0,1.0,74,0.00,,SKC,0.00,VWS V14.01,2013-06-15 20:06:00,
2013-06-15 15:11:00,84.3,74.7,29.95,SSW,196,0.0,3.0,73,0.00,,SKC,0.00,VWS V14.01,2013-06-15 20:11:00,
2013-06-15 15:16:00,84.5,74.9,29.95,SSW,196,0.0,3.0,73,0.00,,SKC,0.00,VWS V14.01,2013-06-15 20:16:00,
2013-06-15 15:21:00,84.7,74.7,29.95,SSW,196,0.0,3.0,72,0.00,,SKC,0.00,VWS V14.01,2013-06-15 20:21:00,
2013-06-15 15:26:00,85.0,75.0,29.95,SSW,196,2.0,3.0,72,0.00,,SKC,0.00,VWS V14.01,2013-06-15 20:26:00,
2013-06-15 15:31:00,85.2,73.4,29.95,SSW,196,0.0,4.0,68,0.00,,SKC,0.00,VWS V14.01,2013-06-15 20:31:00,
2013-06-15 15:36:00,85.6,74.3,29.94,SSW,196,4.0,6.0,69,0.00,,SKC,0.00,VWS V14.01,2013-06-15 20:36:00,
2013-06-15 15:41:00,86.0,73.8,29.94,SSW,196,2.0,6.0,67,0.00,,SKC,0.00,VWS V14.01,2013-06-15 20:41:00,
2013-06-15 15:46:00,86.3,74.1,29.94,SSW,193,0.0,6.0,67,0.00,,SKC,0.00,VWS V14.01,2013-06-15 20:46:00,
2013-06-15 15:51:00,86.4,74.6,29.94,SSW,193,0.0,6.0,68,0.00,,SKC,0.00,VWS V14.01,2013-06-15 20:51:00,
2013-06-15 15:56:00,86.6,74.8,29.93,SSW,193,0.0,6.0,68,0.00,,SKC,0.00,VWS V14.01,2013-06-15 20:56:00,
2013-06-15 16:01:00,86.8,74.5,29.93,SSW,193,0.0,6.0,67,0.00,,SKC,0.00,VWS V14.01,2013-06-15 21:01:00,
2013-06-15 16:06:00,87.0,74.7,29.93,SSW,193,1.0,4.0,67,0.00,,SKC,0.00,VWS V14.01,2013-06-15 21:06:00,
2013-06-15 16:11:00,87.1,74.4,29.93,SSW,193,0.0,4.0,66,0.00,,SKC,0.00,VWS V14.01,2013-06-15 21:11:00,
2013-06-15 16:16:00,87.2,74.0,29.93,SSW,193,0.0,4.0,65,0.00,,SKC,0.00,VWS V14.01,2013-06-15 21:16:00,
2013-06-15 16:20:00,87.4,74.2,29.93,SSW,193,0.0,4.0,65,0.00,,SKC,0.00,VWS V14.01,2013-06-15 21:20:00,
2013-06-15 16:25:00,87.6,74.4,29.93,SSW,193,0.0,4.0,65,0.00,,SKC,0.00,VWS V14.01,2013-06-15 21:25:00,
2013-06-15 16:30:00,87.9,74.7,29.93,SSW,193,0.0,4.0,65,0.00,,SKC,0.00,VWS V14.01,2013-06-15 21:30:00,
2013-06-15 16:35:00,88.2,74.5,29.92,SSW,193,4.0,5.0,64,0.00,,SKC,0.00,VWS V14.01,2013-06-15 21:35:00,
2013-06-15 16:40:00,88.5,74.3,29.92,SSW,193,3.0,5.0,63,0.00,,SKC,0.00,VWS V14.01,2013-06-15 21:40:00,
2013-06-15 16:45:00,88.9,74.2,29.92,SSW,193,0.0,5.0,62,0.00,,SKC,0.00,VWS V14.01,2013-06-15 21:45:00,
2013-06-15 16:50:00,89.5,74.8,29.92,SSW,193,0.0,5.0,62,0.00,,SKC,0.00,VWS V14.01,2013-06-15 21:50:00,
2013-06-15 16:55:00,89.9,73.2,29.92,South,190,0.0,6.0,58,0.00,,SKC,0.00,VWS V14.01,2013-06-15 21:55:00,
2013-06-15 17:00:00,90.1,72.8,29.92,South,190,0.0,6.0,57,0.00,,SKC,0.00,VWS V14.01,2013-06-15 22:00:00,
2013-06-15 17:05:00,90.2,72.9,29.92,South,190,0.0,1.0,57,0.00,,SKC,0.00,VWS V14.01,2013-06-15 22:05:00,
2013-06-15 17:10:00,90.1,73.3,29.92,South,190,0.0,1.0,58,0.00,,SKC,0.00,VWS V14.01,2013-06-15 22:10:00,
2013-06-15 17:15:00,90.1,73.3,29.91,South,190,0.0,2.0,58,0.00,,SKC,0.00,VWS V14.01,2013-06-15 22:15:00,
2013-06-15 17:20:00,89.9,72.1,29.91,South,190,1.0,2.0,56,0.00,,SKC,0.00,VWS V14.01,2013-06-15 22:20:00,
2013-06-15 17:25:00,89.8,72.6,29.91,South,190,0.0,2.0,57,0.00,,SKC,0.00,VWS V14.01,2013-06-15 22:25:00,
2013-06-15 17:30:00,89.8,73.1,29.91,South,190,0.0,2.0,58,0.00,,SKC,0.00,VWS V14.01,2013-06-15 22:30:00,
2013-06-15 17:35:00,89.9,72.6,29.91,South,190,0.0,1.0,57,0.00,,SKC,0.00,VWS V14.01,2013-06-15 22:35:00,
2013-06-15 17:40:00,90.1,73.3,29.91,South,190,0.0,4.0,58,0.00,,SKC,0.00,VWS V14.01,2013-06-15 22:40:00,
2013-06-15 17:45:00,90.2,72.4,29.90,South,180,0.0,4.0,56,0.00,,SKC,0.00,VWS V14.01,2013-06-15 22:45:00,
2013-06-15 17:50:00,90.2,72.4,29.90,South,180,0.0,5.0,56,0.00,,SKC,0.00,VWS V14.01,2013-06-15 22:50:00,
2013-06-15 17:55:00,90.2,72.4,29.90,South,180,2.0,6.0,56,0.00,,SKC,0.00,VWS V14.01,2013-06-15 22:55:00,
2013-06-15 18:00:00,90.3,72.5,29.90,South,180,0.0,6.0,56,0.00,,SKC,0.00,VWS V14.01,2013-06-15 23:00:00,
2013-06-15 18:05:00,90.4,72.6,29.90,South,180,0.0,1.0,56,0.00,,SKC,0.00,VWS V14.01,2013-06-15 23:05:00,
2013-06-15 18:10:00,90.4,72.6,29.90,South,180,0.0,1.0,56,0.00,,SKC,0.00,VWS V14.01,2013-06-15 23:10:00,
2013-06-15 18:15:00,90.3,72.5,29.90,South,180,0.0,3.0,56,0.00,,SKC,0.00,VWS V14.01,2013-06-15 23:15:00,
2013-06-15 18:20:00,90.4,73.1,29.89,South,180,0.0,3.0,57,0.00,,SKC,0.00,VWS V14.01,2013-06-15 23:20:00,
2013-06-15 18:25:00,90.5,73.2,29.89,South,180,0.0,4.0,57,0.00,,SKC,0.00,VWS V14.01,2013-06-15 23:25:00,
2013-06-15 18:30:00,90.5,73.2,29.89,South,180,0.0,4.0,57,0.00,,SKC,0.00,VWS V14.01,2013-06-15 23:30:00,
2013-06-15 18:35:00,90.4,73.1,29.89,South,180,0.0,3.0,57,0.00,,SKC,0.00,VWS V14.01,2013-06-15 23:35:00,
2013-06-15 18:40:00,90.3,73.5,29.89,South,180,0.0,4.0,58,0.00,,SKC,0.00,VWS V14.01,2013-06-15 23:40:00,
2013-06-15 18:45:00,90.1,73.3,29.89,South,180,0.0,4.0,58,0.00,,SKC,0.00,VWS V14.01,2013-06-15 23:45:00,
2013-06-15 18:50:00,89.9,73.2,29.89,South,180,0.0,4.0,58,0.00,,SKC,0.00,VWS V14.01,2013-06-15 23:50:00,
2013-06-15 18:55:00,89.6,73.4,29.89,South,180,0.0,4.0,59,0.00,,SKC,0.00,VWS V14.01,2013-06-15 23:55:00,
2013-06-15 19:00:00,89.3,73.1,29.89,South,180,0.0,4.0,59,0.00,,SKC,0.00,VWS V14.01,2013-06-16 00:00:00,
2013-06-15 19:05:00,89.1,73.4,29.89,South,180,0.0,0.0,60,0.00,,SKC,0.00,VWS V14.01,2013-06-16 00:05:00,
2013-06-15 19:10:00,88.9,73.7,29.89,South,180,0.0,1.0,61,0.00,,SKC,0.00,VWS V14.01,2013-06-16 00:10:00,
2013-06-15 19:15:00,88.9,73.7,29.89,South,180,0.0,1.0,61,0.00,,SKC,0.00,VWS V14.01,2013-06-16 00:15:00,
2013-06-15 19:20:00,88.8,73.6,29.89,South,180,0.0,1.0,61,0.00,,SKC,0.00,VWS V14.01,2013-06-16 00:20:00,
2013-06-15 19:25:00,88.8,73.6,29.89,South,180,0.0,1.0,61,0.00,,SKC,0.00,VWS V14.01,2013-06-16 00:25:00,
2013-06-15 19:30:00,88.9,74.2,29.90,South,180,0.0,1.0,62,0.00,,SKC,0.00,VWS V14.01,2013-06-16 00:30:00,
2013-06-15 19:35:00,89.0,73.8,29.89,South,180,0.0,1.0,61,0.00,,SKC,0.00,VWS V14.01,2013-06-16 00:35:00,
2013-06-15 19:40:00,89.0,73.8,29.89,South,180,0.0,1.0,61,0.00,,SKC,0.00,VWS V14.01,2013-06-16 00:40:00,
2013-06-15 19:45:00,89.1,73.9,29.89,South,180,0.0,2.0,61,0.00,,SKC,0.00,VWS V14.01,2013-06-16 00:45:00,
2013-06-15 19:50:00,89.1,73.9,29.90,South,180,0.0,2.0,61,0.00,,SKC,0.00,VWS V14.01,2013-06-16 00:50:00,
2013-06-15 19:55:00,89.0,73.8,29.90,South,180,0.0,2.0,61,0.00,,SKC,0.00,VWS V14.01,2013-06-16 00:55:00,
2013-06-15 20:00:00,88.8,73.6,29.90,South,180,0.0,2.0,61,0.00,,SKC,0.00,VWS V14.01,2013-06-16 01:00:00,
2013-06-15 20:05:00,88.5,73.3,29.89,South,180,0.0,3.0,61,0.00,,SKC,0.00,VWS V14.01,2013-06-16 01:05:00,
2013-06-15 20:10:00,88.2,73.6,29.90,South,180,0.0,3.0,62,0.00,,SKC,0.00,VWS V14.01,2013-06-16 01:10:00,
2013-06-15 20:15:00,87.9,73.3,29.89,South,180,0.0,3.0,62,0.00,,SKC,0.00,VWS V14.01,2013-06-16 01:15:00,
2013-06-15 20:20:00,87.5,73.4,29.90,South,180,0.0,3.0,63,0.00,,SKC,0.00,VWS V14.01,2013-06-16 01:20:00,
2013-06-15 20:25:00,87.2,73.6,29.90,South,180,0.0,3.0,64,0.00,,SKC,0.00,VWS V14.01,2013-06-16 01:25:00,
2013-06-15 20:30:00,86.8,73.2,29.90,South,180,0.0,3.0,64,0.00,,SKC,0.00,VWS V14.01,2013-06-16 01:30:00,
2013-06-15 20:35:00,86.5,73.3,29.90,South,180,0.0,1.0,65,0.00,,SKC,0.00,VWS V14.01,2013-06-16 01:35:00,
2013-06-15 20:40:00,86.2,73.5,29.90,South,180,0.0,1.0,66,0.00,,SKC,0.00,VWS V14.01,2013-06-16 01:40:00,
2013-06-15 20:45:00,85.8,73.1,29.90,South,180,0.0,1.0,66,0.00,,SKC,0.00,VWS V14.01,2013-06-16 01:45:00,
2013-06-15 20:50:00,85.4,73.2,29.90,South,180,0.0,3.0,67,0.00,,SKC,0.00,VWS V14.01,2013-06-16 01:50:00,
2013-06-15 20:55:00,85.1,73.4,29.90,South,180,0.0,3.0,68,0.00,,SKC,0.00,VWS V14.01,2013-06-16 01:55:00,
2013-06-15 21:00:00,84.8,73.5,29.90,South,180,0.0,3.0,69,0.00,,SKC,0.00,VWS V14.01,2013-06-16 02:00:00,
2013-06-15 21:05:00,84.6,73.7,29.90,South,180,0.0,0.0,70,0.00,,SKC,0.00,VWS V14.01,2013-06-16 02:05:00,
2013-06-15 21:10:00,84.3,73.9,29.90,South,180,0.0,2.0,71,0.00,,SKC,0.00,VWS V14.01,2013-06-16 02:10:00,
2013-06-15 21:15:00,84.0,73.6,29.91,South,180,0.0,2.0,71,0.00,,SKC,0.00,VWS V14.01,2013-06-16 02:15:00,
2013-06-15 21:20:00,83.8,73.8,29.91,South,180,0.0,2.0,72,0.00,,SKC,0.00,VWS V14.01,2013-06-16 02:20:00,
2013-06-15 21:25:00,83.6,73.6,29.91,South,180,0.0,2.0,72,0.00,,SKC,0.00,VWS V14.01,2013-06-16 02:25:00,
2013-06-15 21:30:00,83.4,73.8,29.91,South,177,5.0,8.0,73,0.00,,SKC,0.00,VWS V14.01,2013-06-16 02:30:00,
2013-06-15 21:35:00,83.0,73.5,29.92,SSE,152,10.0,12.0,73,0.00,,SKC,0.00,VWS V14.01,2013-06-16 02:35:00,
2013-06-15 21:40:00,82.8,73.7,29.92,SSE,156,5.0,12.0,74,0.01,,SKC,0.01,VWS V14.01,2013-06-16 02:40:00,
2013-06-15 21:45:00,82.5,74.2,29.92,SSE,156,0.0,12.0,76,0.01,,SKC,0.01,VWS V14.01,2013-06-16 02:45:00,
2013-06-15 21:50:00,82.3,74.4,29.92,SSE,156,0.0,12.0,77,0.01,,SKC,0.01,VWS V14.01,2013-06-16 02:50:00,
2013-06-15 21:55:00,81.9,74.4,29.92,SSE,156,0.0,12.0,78,0.01,,SKC,0.01,VWS V14.01,2013-06-16 02:55:00,
2013-06-15 22:00:00,81.5,74.0,29.92,SSE,156,0.0,12.0,78,0.01,,SKC,0.01,VWS V14.01,2013-06-16 03:00:00,
2013-06-15 22:05:00,81.2,74.1,29.92,SSE,156,0.0,0.0,79,0.01,,SKC,0.01,VWS V14.01,2013-06-16 03:05:00,
2013-06-15 22:10:00,80.9,74.2,29.92,SSE,156,1.0,1.0,80,0.01,,SKC,0.01,VWS V14.01,2013-06-16 03:10:00,
2013-06-15 22:15:00,80.5,73.8,29.92,SSE,156,0.0,2.0,80,0.01,,SKC,0.01,VWS V14.01,2013-06-16 03:15:00,
2013-06-15 22:20:00,80.3,73.9,29.92,SSE,156,0.0,2.0,81,0.01,,SKC,0.01,VWS V14.01,2013-06-16 03:20:00,
2013-06-15 22:25:00,80.0,73.7,29.93,SSE,156,0.0,2.0,81,0.01,,SKC,0.01,VWS V14.01,2013-06-16 03:25:00,
2013-06-15 22:30:00,79.9,73.9,29.93,SSE,156,0.0,2.0,82,0.01,,SKC,0.01,VWS V14.01,2013-06-16 03:30:00,
2013-06-15 22:35:00,79.7,73.4,29.93,SSE,156,4.0,5.0,81,0.01,,SKC,0.01,VWS V14.01,2013-06-16 03:35:00,
2013-06-15 22:40:00,79.6,73.3,29.93,SSE,156,3.0,7.0,81,0.01,,SKC,0.01,VWS V14.01,2013-06-16 03:40:00,
2013-06-15 22:45:00,79.5,73.2,29.93,SSE,155,5.0,7.0,81,0.01,,SKC,0.01,VWS V14.01,2013-06-16 03:45:00,
2013-06-15 22:50:00,79.6,72.9,29.94,SSE,155,2.0,7.0,80,0.01,,SKC,0.01,VWS V14.01,2013-06-16 03:50:00,
2013-06-15 22:55:00,79.7,72.6,29.94,SSE,155,4.0,9.0,79,0.01,,SKC,0.01,VWS V14.01,2013-06-16 03:55:00,
2013-06-15 23:00:00,79.8,72.3,29.94,SSE,151,5.0,10.0,78,0.01,,SKC,0.01,VWS V14.01,2013-06-16 04:00:00,
2013-06-15 23:01:00,79.8,72.3,29.94,SSE,151,5.0,10.0,78,0.01,,SKC,0.01,VWS V14.01,2013-06-16 04:01:00,
2013-06-15 23:06:00,79.9,72.1,29.94,SSE,151,2.0,5.0,77,0.00,,SKC,0.01,VWS V14.01,2013-06-16 04:06:00,
2013-06-15 23:11:00,80.0,72.2,29.95,SSE,150,3.0,6.0,77,0.00,,SKC,0.01,VWS V14.01,2013-06-16 04:11:00,
2013-06-15 23:16:00,79.9,72.1,29.95,SSE,150,1.0,6.0,77,0.00,,SKC,0.01,VWS V14.01,2013-06-16 04:16:00,
2013-06-15 23:21:00,79.9,72.1,29.95,SSE,150,2.0,6.0,77,0.00,,SKC,0.01,VWS V14.01,2013-06-16 04:21:00,
2013-06-15 23:26:00,79.8,71.6,29.95,SSE,149,5.0,12.0,76,0.00,,SKC,0.01,VWS V14.01,2013-06-16 04:26:00,
2013-06-15 23:31:00,79.8,71.6,29.95,SSE,148,2.0,12.0,76,0.00,,SKC,0.01,VWS V14.01,2013-06-16 04:31:00,
2013-06-15 23:36:00,79.7,71.5,29.96,SSE,148,2.0,9.0,76,0.00,,SKC,0.01,VWS V14.01,2013-06-16 04:36:00,
2013-06-15 23:41:00,79.6,71.4,29.96,SSE,148,3.0,9.0,76,0.00,,SKC,0.01,VWS V14.01,2013-06-16 04:41:00,
2013-06-15 23:46:00,79.4,71.2,29.96,SSE,148,4.0,9.0,76,0.00,,SKC,0.01,VWS V14.01,2013-06-16 04:46:00,
2013-06-15 23:51:00,79.2,71.4,29.96,SE,144,3.0,10.0,77,0.00,,SKC,0.01,VWS V14.01,2013-06-16 04:51:00,
2013-06-15 23:56:00,79.1,71.3,29.96,SE,144,3.0,10.0,77,0.00,,SKC,0.01,VWS V14.01,2013-06-16 04:56:00,